Hourly Data Report for October 04, 2017

All times are specified in Local Standard Time (LST). Add 1 hour to adjust for Daylight Saving Time where and when it is observed.

FORT NELSON A
BRITISH COLUMBIA

58°50'11.000" N
122°35'49.000" W
381.90 m
1192946
71945
YYE

Download Data

Hourly Data (October 2017)
Hourly Data Report for October 4, 2017
Temp Definition
°C
Dew Point Temp Definition
°C
Rel Hum Definition
%
Wind Dir Definition
10's deg

Wind Spd Definition
km/h
Visibility Definition
km
Stn Press Definition
kPa
Hmdx Definition


Wind Chill Definition


Weather Definition


TIME
00:00 Legend Double Dagger 6.3 3.1 80 20 4 24.1 97.56     LegendNANA
01:00 Legend Double Dagger 7.7 3.5 75 18 3 24.1 97.57     Mostly Cloudy
02:00 Legend Double Dagger 7.8 3.4 73 18 8 24.1 97.59     LegendNANA
03:00 Legend Double Dagger 8.0 2.9 70 18 9 24.1 97.54     LegendNANA
04:00 Legend Double Dagger 7.5 2.8 72 18 5 24.1 97.51     Mostly Cloudy
05:00 Legend Double Dagger 7.2 2.3 71 18 12 24.1 97.48     LegendNANA
06:00 Legend Double Dagger 6.6 2.5 75 18 7 24.1 97.46     LegendNANA
07:00 Legend Double Dagger 6.5 2.0 73 19 9 32.2 97.44     Mostly Cloudy
08:00 Legend Double Dagger 6.7 1.9 72 18 10 80.5 97.42     LegendNANA
09:00 Legend Double Dagger 8.9 2.9 66 14 8 80.5 97.37     LegendNANA
10:00 Legend Double Dagger 10.5 3.1 60 15 7 80.5 97.35     Mostly Cloudy
11:00 Legend Double Dagger 13.6 3.4 50 18 11 80.5 97.31     LegendNANA
12:00 Legend Double Dagger 16.0 4.0 44 18 11 80.5 97.24     LegendNANA
13:00 Legend Double Dagger 18.4 4.8 40 14 7 48.3 97.20     Mainly Clear
14:00 Legend Double Dagger 19.9 5.3 38 15 5 48.3 97.14     LegendNANA
15:00 Legend Double Dagger 20.9 5.9 37 12 7 48.3 97.07     LegendNANA
16:00 Legend Double Dagger 21.3 6.1 37 36 3 48.3 96.99     Mainly Clear
17:00 Legend Double Dagger 20.8 6.3 39 9 4 48.3 96.94     LegendNANA
18:00 Legend Double Dagger 15.0 7.7 62 36 3 32.2 96.90     LegendNANA
19:00 Legend Double Dagger 12.1 7.1 72   0 24.1 96.85     Mainly Clear
20:00 Legend Double Dagger 10.2 6.4 77 28 5 24.1 96.81     LegendNANA
21:00 Legend Double Dagger 9.1 6.2 82 29 5 24.1 96.76     LegendNANA
22:00 Legend Double Dagger 8.6 5.7 82 36 2 24.1 96.73     Clear
23:00 Legend Double Dagger 6.6 4.8 88 36 2 24.1 96.74     LegendNANA

Notes on Data Quality.

Legend

  • E = Estimated
  • M = Missing
  • NA = Not Available
  • ‡ = Partner data that is not subject to review by the National Climate Archives
Date modified: